Dewpoint
1 5 6 5 4 3 5 6 6 6 6 6 6 5 5 5 5 5 5 4 3 8 10 9 11 12 12 11 10 10 10 8 9 12 12 11 9 12 13 13 12 12 12 11
0 4 4 4 4 2 4 6 6 6 7 6 6 5 5 5 5 5 5 4 3 3 5 8 9 10 12 11 12 12 12 12 11 11 9 10 10 12 12 12 12 12 12 12
0 2 3 3 2 3 2 4 4 6 7 6 7 7 7 5 5 4 4 4 4 3 2 4 6 9 10 11 11 11 12 12 12 12 11 10 12 12 13 13 12 12 12 12
3 2 3 3 3 2 4 2 2 7 7 7 5 5 6 5 6 5 4 3 3 2 2 2 4 4 6 7 9 10 11 12 13 12 11 11 11 11 11 12 11 12 12 12
1 4 4 4 3 2 3 3 3 6 5 6 7 6 3 4 6 5 3 3 2 2 2 2 3 3 3 3 4 7 10 10 11 11 11 10 10 11 12 11 11 12 13 12
1 1 3 3 2 2 2 4 5 5 5 7 5 6 5 3 3 2 2 2 1 2 2 1 2 3 3 2 2 3 5 9 9 8 9 10 10 11 10 11 11 11 11 12
-0 0 1 3 4 2 3 4 7 8 8 6 2 6 5 1 -0 -2 -1 -1 -0 1 1 1 0 1 3 2 0 1 2 4 8 9 10 10 10 9 9 10 11 11 10 10
1 -1 1 2 3 3 4 3 4 6 6 5 4 7 4 -1 -2 -3 -2 -3 -3 -2 -3 -4 -3 -0 0 1 0 1 1 3 4 6 7 9 8 9 10 10 9 9 10 10
3 2 -0 1 3 2 4 5 3 3 2 1 4 2 -3 -4 -4 -5 -4 -3 -3 -3 -2 -3 -4 -3 -1 -0 -0 0 1 4 4 4 4 5 6 7 8 8 8 9 10 9
1 2 1 3 3 4 4 2 6 6 7 6 2 1 -0 -4 -4 -4 -3 -3 -3 -2 -0 -1 -2 -2 -2 -2 -0 1 1 2 3 2 3 4 4 6 7 8 9 9 10 10
1 3 1 3 4 4 6 7 5 4 4 4 3 -0 -4 -3 -4 -5 -4 -3 -3 -2 -2 -0 -0 -1 -2 -1 0 1 1 1 2 3 3 3 3 2 1 2 6 9 10 10
1 3 2 1 2 4 4 6 5 5 5 1 -0 1 -5 -4 -2 -3 -4 -2 -2 -3 -2 -2 -1 1 1 0 -0 1 1 2 3 2 1 1 0 0 1 4 7 9 10 9
2 2 2 -2 3 4 6 5 5 5 3 1 2 1 -5 -3 -0 -1 -1 -1 -1 -2 -3 -4 -4 -3 1 3 3 2 3 2 2 2 2 1 1 1 1 3 5 6 5 2
1 0 -2 -0 -1 2 3 3 3 6 6 3 2 0 -3 -4 -1 -0 -1 -1 -1 -2 -3 -3 -4 -4 -4 -4 -2 -0 1 3 3 3 3 2 2 2 2 2 1 0 -0 -0
-0 -3 -0 -0 0 2 3 3 3 5 5 4 1 1 -2 -4 -4 -3 -1 -2 -2 -2 -2 -3 -3 -3 -3 -4 -4 -4 -4 -3 -0 3 3 3 2 2 2 1 1 0 1 5
-2 -4 -1 -3 -1 -0 1 2 2 3 4 5 5 4 -0 -2 -4 -3 -2 -1 -1 -1 -1 -3 -3 -3 -3 -3 -3 -3 -3 -3 -2 0 3 3 3 3 3 3 2 2 3 6
-2 -1 -3 -1 -3 1 0 1 2 2 4 4 5 3 2 3 2 1 -1 -1 -0 -0 -1 -2 -2 -2 -3 -2 -2 -2 -2 -2 -2 -0 2 4 4 4 4 3 3 4 5 2
-2 -3 -1 -1 1 -0 -2 -1 0 1 1 2 3 3 2 3 2 0 0 -0 -0 -0 -1 -2 -2 -3 -3 -3 -2 -2 -2 -1 -1 0 2 4 4 4 4 4 5 4 1 1
-5 -3 -3 -0 1 -2 -1 1 -1 3 4 0 0 0 1 1 1 1 1 0 -0 -1 -2 -2 -2 -3 -3 -3 -3 -3 -2 -2 -0 0 1 3 4 4 4 4 2 1 1 1
-2 -2 -3 -2 1 2 1 1 1 -1 3 1 1 1 2 0 2 1 0 -0 -0 -0 -1 -1 -1 -2 -2 -2 -2 -1 -2 -2 -2 0 1 3 4 3 3 2 1 1 1 1
-2 -2 -2 -2 -1 -2 -1 1 -1 2 -1 1 1 2 2 2 0 0 -0 -0 -0 -1 -1 -1 -1 -1 -2 -2 -2 -2 -2 -1 -2 1 2 3 3 3 2 1 1 1 1 1
-1 -1 -1 -1 -0 -1 1 -0 -0 -0 -0 0 1 1 2 2 1 0 0 0 1 0 0 -0 -1 -1 -1 -1 -1 -0 -1 -1 -0 2 3 3 3 3 2 1 1 1 1 1
0 -2 -1 -2 -2 -2 0 -0 0 1 1 1 1 1 1 1 1 1 1 1 1 1 1 0 -1 1 1 0 -0 -0 0 -0 2 3 3 3 3 2 2 1 1 1 1 1
-5 -2 0 -0 -2 -3 -4 1 -3 -6 -5 -3 -2 0 1 1 2 2 2 1 1 1 1 1 0 1 2 3 1 0 1 2 2 3 3 2 2 2 2 1 1 1 1 0
-5 -4 -3 -4 -5 -2 -1 -6 -5 -5 -4 -4 -3 -2 -1 1 2 3 2 2 1 1 1 1 1 1 2 2 3 3 3 3 3 3 2 2 2 2 2 1 1 1 1 -0
-6 -5 -4 -5 -6 -5 -5 -5 -4 -3 -3 -3 -4 -3 -3 -1 1 2 2 2 1 1 1 1 1 1 1 2 2 2 2 2 2 3 2 2 2 2 1 1 1 0 -0 -0
Wind_Speed
7 6 4 4 1 2 2 4 4 4 5 7 7 8 8 12 17 14 9 5 2 8 14 25 26 29 35 38 36 34 36 30 30 32 30 28 26 27 24 21 21 18 16 14
6 3 1 5 4 2 3 5 4 8 13 7 10 6 9 5 7 13 18 16 8 6 9 13 18 27 35 36 40 39 37 37 37 31 24 26 31 33 25 22 22 23 22 19
5 3 3 1 1 3 1 4 4 4 8 1 7 3 6 6 9 23 25 24 19 15 12 15 16 21 25 27 30 31 30 29 34 33 32 32 32 30 25 27 27 26 25 25
2 1 1 0 2 2 1 3 2 7 4 0 3 1 5 10 9 13 25 28 28 22 17 17 21 21 20 20 22 24 27 27 27 29 30 30 26 26 28 27 24 27 27 27
2 2 1 2 2 2 2 2 5 4 3 2 2 0 4 9 10 21 18 23 33 28 25 19 23 23 21 19 19 21 24 25 25 27 25 26 25 25 26 24 24 25 28 29
3 2 3 2 2 2 4 5 7 5 2 2 6 4 3 5 13 12 20 25 29 26 27 22 20 25 24 22 21 22 24 25 24 21 23 23 23 21 19 21 21 19 20 28
7 3 2 2 1 2 3 4 1 0 2 3 3 4 7 4 5 6 9 22 27 26 28 26 26 26 25 24 20 23 25 25 24 23 23 22 22 21 21 20 22 21 19 21
1 7 2 1 4 4 3 6 4 5 3 2 1 6 6 5 7 11 17 11 11 15 19 26 30 30 26 23 20 21 24 24 23 23 23 23 23 23 22 21 22 22 20 19
3 5 2 2 2 1 2 2 3 6 2 2 4 6 8 8 9 7 10 10 10 10 13 15 20 30 29 26 22 19 20 22 22 23 22 22 22 22 21 21 22 24 22 21
2 3 1 5 2 2 3 5 3 2 3 4 3 4 5 4 5 3 5 4 4 0 3 1 7 16 20 23 24 22 20 21 21 21 19 18 18 18 18 19 19 20 21 20
3 2 5 3 4 6 2 2 1 3 3 4 1 5 5 5 5 5 7 4 3 3 4 6 4 5 18 21 21 22 21 19 16 15 15 15 14 14 14 13 13 14 14 17
3 3 4 7 2 1 2 3 4 3 3 2 3 5 2 4 7 9 3 7 5 4 6 7 7 4 1 7 18 17 17 16 14 12 12 12 12 11 11 10 10 10 11 14
3 2 3 9 0 3 3 4 7 1 2 5 4 5 2 3 6 8 7 7 7 6 5 5 5 4 4 3 5 9 11 12 12 12 13 13 13 12 11 11 11 13 13 13
2 3 5 5 5 2 3 3 6 7 2 3 8 2 3 6 5 4 8 7 7 7 8 7 6 6 5 3 2 5 9 12 13 14 15 14 13 13 12 13 14 14 14 13
3 1 1 9 10 8 6 8 6 6 4 4 1 8 7 3 3 2 2 7 6 4 3 3 4 1 2 1 1 1 3 7 12 15 16 15 14 15 15 15 16 16 15 12
4 1 2 4 7 9 10 8 11 13 8 10 8 6 5 5 3 5 5 2 0 7 10 9 10 10 10 8 7 7 6 7 9 13 16 16 17 17 17 17 18 18 16 13
3 1 3 4 5 2 3 6 8 3 4 4 9 3 4 11 5 5 5 11 15 17 16 11 11 12 13 15 14 10 9 10 10 12 16 19 20 19 19 19 19 19 17 14
3 2 1 3 5 1 5 5 2 6 5 4 7 8 8 16 30 23 21 19 17 15 12 8 12 13 14 14 14 16 17 16 14 12 16 20 21 20 20 20 20 18 16 12
2 2 2 2 2 5 3 5 4 2 3 7 6 9 17 21 18 14 17 16 12 10 11 13 15 17 20 19 18 19 19 18 20 17 16 20 22 22 22 21 18 17 14 12
1 1 2 2 1 2 1 6 5 4 2 10 12 10 11 3 2 4 13 9 7 7 8 11 14 18 20 19 20 19 19 21 22 19 16 18 19 19 18 16 16 15 14 13
2 1 3 1 2 6 4 12 7 2 2 12 14 14 16 5 7 5 1 3 6 8 9 12 14 15 16 16 17 18 21 19 18 17 15 17 18 17 16 16 16 14 14 13
6 5 3 3 2 5 5 4 2 0 2 6 13 18 19 16 14 8 4 5 6 7 8 10 12 12 12 12 12 12 14 15 16 17 15 17 18 17 18 17 16 16 14 12
2 5 3 7 5 3 2 2 5 0 5 8 12 15 18 19 15 10 9 7 6 6 7 8 8 8 9 10 9 7 8 12 13 15 14 15 16 16 17 17 16 15 13 12
3 3 3 1 1 0 3 3 3 5 9 10 11 15 15 20 19 12 8 6 5 3 4 5 5 4 5 4 4 5 5 8 11 15 13 13 14 16 16 16 16 15 13 12
4 3 3 4 5 3 3 5 3 10 14 15 13 13 14 16 19 13 8 7 5 3 3 4 4 3 2 6 5 6 9 11 13 12 12 12 13 14 15 14 14 13 13 13
8 6 4 4 3 2 5 7 17 24 23 22 15 16 15 15 18 12 6 6 4 3 2 1 2 3 4 4 4 5 6 6 7 9 10 11 12 13 13 14 14 14 13 14
Wind_Direction
11 60 38 6 299 235 180 166 145 252 204 51 333 321 321 328 336 334 320 305 312 190 194 199 199 201 208 214 217 215 215 223 230 231 221 212 229 221 217 220 223 222 225 227
27 63 276 282 264 122 149 161 162 179 175 140 193 291 282 324 296 291 289 284 266 249 208 190 204 201 208 210 214 216 217 217 223 221 225 229 231 229 221 225 228 232 232 234
132 216 307 354 83 76 60 165 238 159 155 37 120 283 263 282 294 293 276 264 260 248 242 219 211 209 210 213 215 218 218 222 225 222 220 228 231 230 226 230 233 234 233 232
157 274 268 267 98 119 142 256 182 115 101 230 205 230 189 220 219 261 261 255 245 244 242 241 230 224 219 217 218 220 222 227 230 228 226 233 236 241 241 243 248 246 242 241
246 40 77 220 225 176 176 39 138 128 108 121 150 269 281 177 216 237 236 249 247 245 236 242 230 225 222 223 227 230 227 229 231 232 237 241 242 247 251 254 257 257 247 249
253 287 185 243 297 314 158 60 52 56 46 226 200 172 251 191 220 230 246 250 252 248 233 240 237 227 232 230 235 235 236 235 234 234 239 243 246 253 256 257 258 262 262 256
337 292 292 176 313 347 101 105 63 194 216 222 317 180 253 190 236 245 233 244 246 245 236 243 240 231 225 228 234 238 241 241 241 237 244 248 253 254 255 254 257 260 261 263
71 328 203 157 191 198 178 161 155 193 192 220 135 229 247 235 258 254 255 240 236 227 248 254 245 236 229 228 233 233 239 237 239 243 247 250 252 255 257 253 257 262 263 264
160 274 287 185 295 138 189 181 166 107 118 80 221 289 295 262 269 274 276 229 241 269 274 251 241 229 227 230 235 231 234 227 234 242 242 244 249 254 259 261 260 262 261 258
235 315 324 326 101 284 205 174 102 119 219 184 267 276 242 328 279 277 295 240 160 213 19 295 215 210 221 231 230 229 227 230 238 246 246 247 250 252 256 260 266 265 257 248
166 197 296 349 216 195 152 208 313 136 153 177 239 259 222 269 286 265 252 234 126 98 71 58 65 204 222 220 221 224 224 230 235 232 236 242 249 253 257 261 263 259 248 236
228 176 264 236 292 163 162 290 218 166 183 90 140 268 320 282 283 260 209 142 125 95 90 75 62 53 220 226 227 222 223 217 215 225 235 241 242 246 246 241 231 221 209 200
5 336 356 335 210 64 18 298 229 248 105 194 135 266 288 21 26 54 143 128 129 119 120 115 93 90 94 135 172 195 205 217 223 229 237 240 242 240 232 216 201 190 189 194
21 181 165 200 240 178 288 254 295 218 204 147 230 238 310 23 48 56 105 110 105 101 97 94 84 83 89 104 181 224 239 242 244 245 243 238 236 228 217 210 200 194 197 201
65 201 236 263 267 266 260 268 287 274 260 220 209 212 248 257 233 220 149 130 117 65 27 324 306 234 181 148 312 280 246 242 243 243 242 236 225 215 213 211 211 208 205 229
15 277 345 290 261 235 258 259 259 254 263 259 260 284 270 307 219 124 156 187 7 15 356 309 280 270 265 263 258 258 268 261 243 239 237 233 225 221 223 222 221 218 237 251
81 72 38 284 346 319 317 242 217 235 190 245 240 263 11 306 307 278 238 259 278 301 311 276 278 275 270 268 264 258 256 257 251 242 233 228 227 231 232 226 222 236 245 237
119 92 53 298 316 320 246 1 304 243 300 238 275 273 250 235 267 275 272 285 286 281 268 254 265 267 266 266 267 260 257 251 251 246 232 228 228 229 226 231 239 236 225 225
90 109 53 20 297 287 77 5 355 359 99 18 320 310 299 263 257 262 271 282 277 266 265 266 261 262 269 273 268 261 255 252 243 242 241 230 226 228 230 230 223 219 221 227
81 14 99 17 319 251 183 291 284 213 272 358 353 342 341 48 132 267 305 267 268 276 275 272 273 274 274 269 264 259 255 250 247 240 240 226 221 220 216 213 216 219 224 234
174 210 189 287 250 280 265 303 328 97 247 343 352 355 356 360 333 333 283 266 269 282 287 287 287 284 277 271 265 259 250 249 246 231 229 219 215 213 210 211 215 220 229 241
175 165 203 143 234 292 346 338 44 347 352 7 9 11 360 353 352 330 297 289 293 298 299 301 300 294 289 282 272 264 250 236 229 216 216 214 212 211 212 215 218 224 235 250
220 186 184 181 217 228 344 166 152 107 313 320 337 350 356 355 343 334 304 297 299 308 317 322 312 310 309 288 262 260 237 222 208 203 206 211 213 214 217 220 224 231 241 252
250 186 213 335 284 338 286 200 164 27 349 335 326 317 331 340 342 333 298 288 291 315 339 343 336 313 333 336 251 228 201 187 187 191 197 207 213 217 218 220 225 233 242 251
204 139 189 267 285 302 206 191 298 318 319 323 318 316 309 320 328 330 297 275 268 296 342 18 14 12 45 57 71 131 148 158 169 183 201 209 216 218 219 222 231 240 243 249
189 186 169 221 194 224 262 283 300 305 306 304 295 300 312 308 317 323 289 273 257 289 298 13 38 51 63 81 102 106 114 136 166 191 206 213 216 218 222 228 234 242 250 263
Height
1454 1457 1459 1461 1464 1465 1460 1463 1465 1463 1470 1463 1476 1472 1466 1464 1467 1468 1470 1472 1474 1474 1479 1484 1487 1489 1497 1503 1505 1509 1512 1517 1520 1521 1526 1530 1531 1534 1536 1539 1543 1545 1547 1548
1465 1466 1464 1463 1461 1462 1465 1466 1475 1479 1469 1471 1479 1469 1465 1464 1466 1469 1471 1473 1473 1474 1477 1481 1482 1490 1493 1495 1500 1505 1509 1513 1516 1516 1517 1525 1528 1531 1533 1537 1539 1541 1545 1546
1468 1465 1463 1462 1462 1462 1464 1467 1465 1463 1466 1466 1468 1475 1469 1466 1462 1463 1465 1470 1472 1473 1476 1478 1482 1485 1489 1492 1496 1500 1502 1506 1512 1516 1519 1522 1524 1525 1528 1531 1535 1538 1540 1541
1465 1465 1464 1462 1461 1463 1465 1460 1458 1458 1460 1468 1466 1469 1468 1466 1463 1463 1460 1462 1465 1469 1472 1473 1477 1481 1484 1486 1490 1495 1498 1502 1507 1511 1513 1517 1520 1522 1524 1527 1529 1533 1536 1537
1465 1464 1464 1462 1460 1460 1463 1458 1460 1463 1471 1472 1470 1477 1461 1462 1459 1457 1452 1452 1456 1463 1468 1470 1474 1477 1480 1484 1488 1490 1494 1497 1500 1504 1509 1513 1515 1516 1520 1523 1525 1526 1529 1531
1463 1463 1464 1463 1459 1458 1458 1460 1463 1471 1474 1477 1473 1474 1466 1463 1453 1449 1446 1447 1450 1455 1462 1466 1470 1474 1477 1480 1483 1487 1490 1494 1497 1503 1505 1507 1510 1512 1514 1518 1520 1523 1525 1525
1469 1462 1460 1461 1462 1460 1461 1466 1476 1477 1474 1478 1476 1474 1455 1448 1450 1449 1444 1442 1445 1449 1455 1460 1464 1468 1472 1477 1480 1483 1485 1488 1492 1496 1500 1502 1505 1508 1510 1513 1516 1518 1519 1520
1487 1478 1461 1457 1460 1462 1463 1464 1480 1473 1481 1486 1476 1468 1455 1443 1442 1443 1443 1440 1443 1447 1451 1452 1456 1463 1468 1472 1476 1479 1481 1484 1488 1492 1496 1498 1501 1504 1507 1508 1511 1512 1514 1516
1480 1473 1460 1460 1458 1460 1464 1472 1465 1483 1490 1504 1478 1465 1447 1437 1437 1435 1438 1437 1440 1443 1445 1445 1446 1452 1461 1466 1471 1475 1477 1480 1483 1487 1490 1493 1496 1498 1500 1503 1505 1508 1509 1511
1469 1480 1462 1460 1460 1462 1461 1464 1471 1473 1472 1472 1474 1470 1456 1438 1437 1434 1437 1438 1439 1441 1442 1442 1443 1449 1454 1459 1465 1470 1472 1476 1479 1483 1485 1488 1490 1492 1495 1498 1500 1501 1504 1506
1467 1471 1470 1464 1464 1463 1464 1464 1466 1468 1469 1476 1471 1461 1447 1442 1441 1442 1439 1436 1437 1441 1442 1443 1443 1446 1451 1456 1461 1464 1468 1472 1475 1477 1481 1483 1486 1488 1490 1491 1494 1496 1498 1501
1466 1468 1473 1466 1461 1461 1461 1464 1463 1462 1470 1480 1488 1465 1443 1444 1441 1438 1440 1439 1440 1442 1443 1444 1445 1448 1451 1453 1456 1460 1464 1467 1470 1473 1476 1480 1482 1484 1486 1488 1491 1493 1496 1499
1469 1479 1480 1478 1464 1463 1465 1463 1462 1462 1465 1483 1480 1464 1443 1443 1441 1437 1440 1441 1443 1444 1445 1446 1448 1450 1452 1453 1455 1458 1461 1464 1467 1469 1473 1476 1480 1482 1484 1486 1489 1492 1494 1498
1469 1476 1482 1489 1479 1471 1474 1464 1465 1459 1459 1470 1459 1452 1443 1443 1443 1443 1444 1445 1446 1447 1448 1450 1451 1453 1454 1454 1455 1457 1460 1461 1463 1467 1470 1473 1477 1479 1482 1485 1487 1490 1492 1496
1473 1487 1476 1471 1470 1469 1466 1462 1462 1462 1458 1464 1456 1454 1449 1445 1444 1444 1445 1446 1449 1449 1448 1450 1452 1454 1455 1455 1456 1457 1459 1460 1461 1465 1467 1470 1474 1477 1480 1483 1486 1488 1491 1493
1478 1493 1481 1484 1471 1470 1467 1461 1458 1457 1461 1458 1458 1456 1449 1445 1445 1442 1446 1450 1449 1448 1449 1451 1452 1453 1453 1454 1456 1457 1457 1459 1460 1461 1464 1468 1470 1474 1477 1480 1483 1485 1488 1489
1484 1485 1490 1484 1470 1464 1474 1456 1453 1452 1452 1453 1452 1447 1448 1448 1446 1445 1444 1446 1447 1447 1448 1450 1450 1450 1451 1452 1453 1454 1455 1455 1456 1457 1461 1464 1468 1471 1473 1476 1479 1482 1484 1485
1484 1488 1483 1487 1471 1480 1458 1451 1450 1451 1451 1449 1452 1451 1448 1446 1440 1438 1440 1443 1444 1445 1446 1447 1448 1448 1449 1449 1449 1450 1451 1453 1453 1454 1457 1460 1463 1467 1470 1473 1476 1478 1480 1481
1480 1485 1492 1483 1477 1469 1452 1456 1457 1454 1458 1458 1454 1449 1445 1440 1440 1439 1440 1441 1441 1441 1442 1442 1442 1444 1445 1446 1445 1446 1446 1447 1449 1451 1452 1455 1459 1463 1466 1468 1471 1474 1476 1478
1481 1482 1488 1487 1482 1473 1460 1455 1455 1454 1457 1456 1453 1450 1444 1439 1443 1441 1440 1439 1439 1439 1439 1439 1439 1440 1439 1439 1439 1440 1440 1441 1443 1446 1448 1452 1456 1458 1461 1464 1468 1471 1474 1475
1482 1485 1488 1493 1492 1471 1457 1454 1451 1455 1461 1456 1453 1451 1448 1447 1446 1441 1439 1439 1439 1439 1438 1438 1437 1436 1434 1433 1433 1433 1434 1435 1439 1442 1446 1448 1452 1455 1458 1461 1464 1468 1470 1471
1476 1477 1473 1481 1482 1479 1457 1453 1452 1458 1457 1456 1455 1452 1449 1446 1443 1442 1441 1440 1439 1438 1437 1435 1434 1432 1430 1428 1427 1428 1429 1431 1435 1439 1443 1445 1449 1452 1455 1459 1462 1464 1466 1468
1472 1468 1470 1471 1465 1456 1456 1456 1456 1456 1457 1455 1454 1452 1450 1447 1444 1442 1441 1439 1438 1436 1435 1433 1432 1431 1429 1427 1426 1426 1426 1428 1432 1437 1441 1444 1447 1450 1453 1456 1458 1460 1463 1464
1463 1462 1464 1461 1456 1455 1454 1455 1455 1456 1455 1453 1452 1449 1448 1446 1443 1441 1440 1439 1438 1436 1435 1433 1432 1431 1429 1426 1425 1425 1426 1428 1431 1435 1439 1442 1445 1447 1450 1452 1455 1457 1459 1461
1462 1461 1461 1461 1454 1454 1453 1454 1453 1452 1452 1451 1449 1448 1445 1444 1442 1440 1439 1438 1437 1436 1435 1433 1433 1431 1430 1428 1427 1426 1427 1428 1431 1434 1438 1440 1443 1445 1447 1450 1452 1454 1456 1457
1454 1454 1458 1456 1453 1453 1453 1452 1451 1449 1447 1446 1445 1443 1443 1442 1440 1437 1436 1437 1436 1434 1434 1434 1433 1432 1431 1430 1430 1429 1429 1431 1433 1435 1436 1439 1441 1443 1445 1447 1449 1450 1452 1454